SCP
0 0 0 0 0 0 0 0 0 0 0 0 0 0 0 0 0 0 0 0 1 1 1 0 0 1 0 0 0 0 0 0 0 0 0 0 0 1 0 0 0 0 0 0
0 0 0 0 0 0 0 0 0 0 0 0 0 0 0 0 0 0 0 0 0 0 0 0 0 0 0 0 0 0 0 0 0 0 0 0 0 0 0 0 0 0 0 0
0 0 0 0 0 0 0 0 0 0 0 0 0 0 0 0 0 0 0 0 0 0 0 0 0 0 0 0 0 0 0 0 0 0 0 0 0 0 1 1 0 0 0 0
0 0 0 0 0 0 0 0 0 0 0 0 0 0 0 0 0 0 0 0 0 0 0 0 -0 -0 -0 -0 0 0 1 1 0 0 0 0 0 0 0 0 0 1 1 1
0 0 0 0 0 0 0 0 0 0 0 0 0 0 0 0 0 0 0 0 0 0 0 -0 -0 -0 -0 0 0 0 0 0 0 0 0 0 0 0 0 0 0 0 0 0
0 0 0 0 0 0 0 0 0 0 0 0 0 0 0 0 0 0 0 0 0 0 0 0 0 0 0 0 0 0 0 0 0 0 0 0 0 0 0 0 0 0 0 0
0 0 0 0 0 0 0 0 0 0 0 0 0 0 0 0 0 0 0 0 0 0 0 0 0 0 0 0 0 0 0 0 0 0 0 0 0 0 0 0 0 0 0 0
0 0 0 0 0 0 0 0 0 0 0 0 0 0 0 0 0 0 0 0 0 0 0 0 0 0 0 0 0 0 0 0 0 0 0 0 0 0 0 0 0 0 0 0
0 0 0 0 0 0 0 0 0 0 0 0 0 0 0 0 0 0 0 0 0 0 0 0 0 0 0 0 0 0 0 0 0 0 0 0 0 0 0 0 0 0 0 0
0 0 0 0 0 0 0 0 0 0 0 0 0 0 0 0 0 0 0 0 0 0 0 0 0 0 0 0 0 0 0 0 0 0 0 0 0 0 0 0 0 0 0 0
0 0 0 0 0 0 0 0 0 0 0 0 0 0 0 0 0 0 0 0 0 0 0 0 0 0 0 0 0 0 0 0 0 0 0 0 0 0 0 0 0 0 0 0
0 0 0 0 0 0 0 0 0 0 0 0 0 0 0 0 0 0 0 0 0 0 0 0 0 0 0 0 0 0 0 0 0 0 0 0 0 -0 0 0 0 0 0 0
0 0 0 0 0 0 0 0 0 0 0 0 0 0 0 0 0 0 0 0 0 0 0 0 0 0 0 0 0 0 0 0 0 0 0 0 0 0 0 0 0 0 0 0
0 0 0 0 0 0 0 0 0 0 0 0 0 0 0 0 0 0 0 0 0 0 0 0 0 0 0 0 0 0 0 0 0 0 0 0 0 0 0 -0 -0 0 0 0
0 0 0 0 0 0 0 0 0 0 0 0 0 0 0 0 0 0 0 0 0 0 0 0 0 0 0 0 0 0 0 0 0 0 0 0 0 0 0 0 -0 0 0 0
0 0 0 0 0 0 0 0 0 0 0 0 0 0 0 0 0 0 0 0 0 0 0 0 0 0 0 0 0 0 0 0 0 0 0 0 0 0 0 0 -0 -0 -0 0
0 0 0 0 0 0 0 0 0 0 0 0 0 0 0 0 0 0 0 0 0 0 0 0 0 0 0 0 0 0 0 0 0 0 0 0 0 0 0 0 0 0 0 -0
0 0 0 0 0 0 0 0 0 0 0 0 0 0 0 0 0 0 0 0 0 0 0 0 0 0 0 -0 -0 -0 0 0 0 0 0 0 0 0 0 0 0 0 0 0
0 0 0 0 0 0 0 0 0 0 0 0 0 0 0 0 0 0 0 0 0 0 0 0 0 0 0 0 -0 -0 -0 0 0 0 0 0 0 0 0 0 0 0 0 0
0 0 0 0 0 0 0 0 0 0 0 0 0 0 0 0 0 0 0 0 0 0 0 0 0 0 0 -0 -0 -0 -0 -0 -0 0 0 0 0 0 0 0 0 0 0 0
0 0 0 0 0 0 0 0 0 0 0 0 0 0 0 0 0 0 0 0 0 0 0 0 0 0 -0 -0 0 -0 -0 -0 -0 -0 0 0 0 0 0 0 0 0 0 0
0 0 0 0 0 0 0 0 0 0 0 0 0 0 0 0 0 0 0 0 0 0 0 0 0 -0 -0 -0 -0 -0 -0 -0 -0 -0 -0 0 0 0 0 0 0 0 0 0
0 0 0 0 0 0 0 0 0 0 0 0 0 0 0 0 0 0 0 0 0 0 -0 0 -0 -0 0 -0 -0 -0 -0 -0 -0 -0 -0 -0 -0 0 0 0 0 0 0 0
0 0 0 0 0 0 0 0 0 0 0 0 0 0 0 0 0 0 0 0 0 0 0 0 0 0 0 0 -0 -0 -0 -0 -0 -0 -0 -0 -0 -0 -0 0 0 0 0 0
0 0 0 0 0 0 0 0 0 0 0 0 0 0 0 0 0 0 0 0 0 0 0 0 0 0 0 0 0 0 0 -0 -0 -0 -0 -0 0 0 -0 -0 -0 -0 -0 -0
0 0 0 0 0 0 0 0 0 0 0 0 0 0 0 -0 -0 0 0 0 0 0 0 0 0 0 0 0 0 0 0 0 0 0 0 0 0 0 0 0 0 -0 -0 -0
0 0 0 0 0 0 0 0 0 0 0 0 0 0 0 0 0 0 0 0 0 0 0 0 0 0 0 0 0 0 0 0 0 0 0 0 0 0 0 0 0 0 0 -0
Wind_Speed_500mb
14 14 6 3 2 3 5 10 11 15 16 10 7 9 14 21 29 36 36 39 39 38 34 36 33 30 27 29 35 39 38 37 38 39 45 42 31 40 50 63 58 57 65 96
6 9 6 13 16 14 12 12 13 16 7 7 11 17 22 29 35 35 34 32 31 30 29 32 33 33 33 34 35 37 38 38 38 43 39 39 36 28 30 43 36 50 64 72
9 9 7 12 12 7 10 11 12 12 9 10 5 20 23 28 29 29 26 27 22 21 23 25 27 31 35 41 47 48 48 48 48 50 52 48 46 46 43 45 49 51 53 58
5 7 7 12 2 25 21 12 12 14 9 12 15 19 20 24 29 26 23 15 12 15 22 24 30 30 33 38 47 42 41 42 47 51 52 51 49 50 55 52 52 56 60 63
8 5 4 5 12 10 11 7 4 10 7 11 11 22 18 21 17 14 10 7 10 21 28 31 39 40 44 51 54 49 50 45 44 45 51 53 52 62 59 55 58 59 60 64
5 8 10 12 4 7 10 3 19 13 9 8 6 4 7 18 13 7 4 11 21 30 37 42 43 40 35 45 45 47 51 54 58 55 55 54 62 68 64 61 59 59 62 62
4 5 12 9 16 17 5 8 27 18 16 12 7 8 13 9 2 7 13 21 30 30 35 33 37 38 42 56 58 63 56 56 50 55 54 59 62 65 64 62 60 61 61 64
6 5 11 8 2 8 13 26 26 21 18 24 20 14 6 2 8 11 18 23 23 28 28 32 41 50 60 67 64 59 59 47 45 51 54 59 56 63 60 55 57 60 61 58
10 9 7 9 26 38 31 28 20 25 20 16 13 14 12 7 5 13 18 16 25 33 39 45 51 54 57 58 60 53 51 53 50 50 53 59 60 61 60 49 53 55 52 53
7 5 3 26 27 24 19 25 24 18 11 9 10 13 10 8 10 16 24 31 39 46 50 52 53 53 51 52 51 49 50 51 52 48 55 56 58 58 54 54 53 52 48 47
3 4 9 12 16 15 14 15 11 7 9 10 9 9 5 7 13 22 32 40 44 48 52 52 49 45 47 50 46 55 51 51 52 52 51 55 52 53 54 54 45 43 42 39
10 25 11 14 14 11 13 12 8 6 12 15 10 9 8 14 17 25 33 41 44 46 48 45 45 46 46 51 51 51 51 47 47 46 45 53 52 59 54 51 46 41 30 31
18 32 36 33 25 19 21 24 20 15 12 10 8 11 12 10 15 26 32 39 44 48 43 39 41 45 49 49 50 47 43 45 50 51 51 52 56 56 66 68 43 35 22 42
57 50 35 27 24 21 17 18 13 10 8 10 8 7 6 11 21 31 39 42 41 38 36 36 41 43 45 47 48 46 46 48 48 46 42 41 42 45 51 60 65 22 26 32
28 19 37 37 27 20 15 11 5 8 11 12 6 4 10 20 28 35 35 30 29 31 33 35 39 40 45 48 45 44 46 50 46 42 39 37 37 40 42 47 48 49 38 33
36 34 31 23 24 18 10 7 8 12 17 21 10 12 18 24 28 28 23 26 33 37 33 32 32 39 45 51 50 41 41 42 44 40 37 38 40 42 42 41 41 44 41 39
38 31 26 22 14 9 8 10 14 19 17 6 10 17 21 22 21 20 24 31 31 24 22 25 30 35 45 55 57 46 42 40 40 38 36 36 34 36 40 42 44 45 40 40
22 21 15 10 7 4 7 14 13 6 6 10 14 18 17 15 16 23 28 28 20 19 22 25 27 30 41 53 58 51 45 43 41 41 40 40 37 36 36 38 39 40 42 39
19 17 11 4 2 5 6 6 7 9 11 15 15 14 13 9 11 18 19 19 23 26 28 28 28 27 32 42 51 55 49 46 47 47 47 47 47 47 47 44 40 39 41 43
12 5 3 7 10 10 9 9 11 13 11 7 8 7 7 9 14 20 23 26 26 25 26 28 29 28 16 32 40 48 49 52 50 50 50 50 52 52 49 49 49 49 50 50
2 7 9 11 11 12 11 8 6 4 4 5 6 8 11 13 13 15 17 20 20 18 22 23 30 29 17 30 35 33 39 47 51 48 49 51 53 55 53 52 53 53 52 51
3 4 8 10 11 8 12 13 11 7 7 9 10 11 11 7 7 9 11 14 15 14 15 20 25 22 23 28 36 34 30 37 42 45 46 48 50 52 54 54 54 53 50 49
4 5 7 6 6 10 12 9 5 10 15 16 16 18 18 20 21 19 12 9 10 14 10 10 17 19 20 24 33 42 34 33 38 40 39 42 44 48 49 49 49 49 50 50
2 3 2 6 9 10 12 15 19 20 20 17 14 18 21 23 22 16 8 12 11 9 5 10 9 10 14 23 28 31 34 35 39 41 43 36 38 41 44 47 48 46 45 46
4 7 9 14 17 21 22 23 21 19 14 15 16 20 25 30 23 20 22 17 17 16 11 16 11 8 12 16 18 21 23 25 30 32 38 43 35 38 40 42 44 45 45 44
7 5 20 25 23 21 19 18 13 9 7 5 9 14 19 23 24 29 34 25 15 12 16 15 12 11 14 13 16 16 15 17 25 31 32 35 35 36 41 44 42 43 44 44
19 20 22 18 12 7 2 6 9 8 8 12 9 2 8 14 18 25 32 30 26 21 22 22 20 16 14 14 16 18 21 24 25 22 26 29 34 39 38 46 43 42 39 41
Wind_Direction_500mb
229 241 180 107 291 272 146 157 154 186 148 195 190 123 88 77 88 86 78 63 61 60 55 53 45 33 16 3 352 344 343 340 338 343 336 339 313 288 273 274 273 257 277 251
291 317 83 62 17 75 50 94 58 105 119 144 126 124 83 80 87 80 79 79 75 68 54 40 30 19 7 356 346 337 332 328 325 329 332 336 328 319 284 291 285 274 274 267
236 338 69 13 329 352 61 41 125 152 200 125 116 64 59 97 95 95 102 98 77 61 44 26 7 352 342 339 339 332 327 324 323 319 318 317 315 313 310 304 299 289 284 277
170 21 68 237 58 95 87 51 51 85 87 145 138 74 111 124 125 115 113 109 81 40 19 8 2 357 0 1 350 332 328 324 323 318 314 313 313 314 308 305 297 290 286 284
116 75 322 273 245 180 140 217 225 122 131 132 130 108 93 137 133 129 121 80 18 4 4 2 358 358 349 350 344 336 329 318 318 320 319 314 314 317 311 301 294 291 292 289
103 114 188 228 146 203 128 224 187 163 171 151 128 62 249 166 154 143 19 358 359 358 356 352 346 344 336 329 324 321 318 316 309 311 309 310 311 311 307 302 296 293 292 288
101 174 285 254 247 172 212 245 152 167 149 140 145 188 141 164 224 332 341 349 347 346 345 337 324 321 321 323 320 319 315 312 310 312 309 310 312 309 308 302 299 298 298 298
100 87 279 22 357 187 153 127 134 126 122 113 101 102 102 15 329 339 345 330 325 324 326 323 320 317 315 319 322 321 315 310 319 315 314 317 316 316 315 305 304 304 306 306
163 211 293 17 118 120 127 122 123 132 131 116 82 47 54 36 316 321 328 348 348 348 341 335 330 327 327 326 321 319 316 316 320 320 318 319 322 320 316 312 310 310 309 309
87 284 125 113 114 114 116 118 123 120 104 36 65 71 56 57 45 11 2 352 344 340 338 335 332 331 325 328 327 332 329 328 326 322 320 321 324 326 317 312 311 307 303 307
40 292 136 132 131 121 123 129 121 107 90 72 63 92 59 45 8 357 348 344 341 337 334 336 337 336 337 339 332 327 333 329 327 326 327 329 332 337 334 328 312 307 297 301
202 186 156 157 148 159 154 131 125 141 102 93 80 79 37 353 349 344 342 338 334 332 333 337 337 337 339 338 341 337 335 336 338 341 344 346 340 340 340 330 323 314 300 293
145 142 121 118 124 135 131 121 118 113 81 61 34 10 354 343 342 337 339 341 337 333 333 334 337 339 342 347 350 350 348 339 338 339 337 345 347 349 342 335 332 334 320 300
138 133 122 132 127 130 131 119 100 77 46 10 356 334 331 340 335 337 337 333 328 329 334 337 340 343 344 344 346 347 344 344 348 352 354 351 1 359 3 3 0 350 0 12
140 148 135 129 130 128 126 119 89 32 18 9 345 326 325 329 332 332 331 337 345 343 344 346 345 351 352 352 356 353 351 356 358 359 0 1 4 355 2 7 10 8 15 12
126 130 134 133 120 112 98 59 6 348 337 333 302 294 320 330 332 333 345 356 352 352 351 352 2 7 9 9 5 359 2 4 2 359 355 0 3 1 6 9 10 11 3 357
133 127 130 123 116 87 37 356 338 334 340 318 302 319 326 334 341 349 353 354 354 357 1 7 17 16 13 14 11 11 8 11 8 4 7 7 8 12 12 15 22 21 15 7
149 135 128 119 112 58 349 339 334 331 336 340 331 329 335 348 11 360 345 350 7 18 15 19 21 20 16 17 17 16 18 22 19 17 18 22 21 19 21 23 23 16 17 17
135 132 122 105 3 333 320 311 331 340 324 316 321 330 344 11 9 347 356 18 35 47 39 25 13 6 18 21 22 23 25 26 27 29 30 32 32 33 30 26 27 28 26 28
131 106 345 322 314 313 316 304 312 327 331 319 331 343 35 50 56 53 66 55 48 33 27 15 13 6 18 26 21 21 25 26 26 29 30 32 34 37 39 38 38 41 40 37
288 312 319 322 327 324 322 325 334 359 68 22 16 44 62 89 81 51 46 35 22 19 12 1 2 15 35 26 22 20 25 25 26 26 27 29 31 34 35 35 36 37 39 40
225 303 325 331 341 24 68 74 90 89 87 78 65 75 59 55 10 359 342 346 359 353 1 357 6 15 25 31 26 20 19 23 25 24 24 24 25 27 29 31 32 32 32 33
232 303 332 344 29 91 105 91 76 91 98 95 84 68 38 24 6 349 341 321 326 353 358 350 2 10 15 24 22 22 19 15 16 21 23 24 25 25 26 25 26 28 30 29
140 9 69 89 90 107 121 107 107 99 92 74 66 58 43 20 6 13 3 318 299 336 328 300 335 343 346 353 2 8 12 18 17 17 16 13 19 23 27 27 26 23 21 21
121 134 123 126 123 110 110 116 111 103 89 88 64 43 46 32 14 10 9 350 322 319 289 277 316 294 321 339 347 350 357 4 5 2 5 12 12 10 11 12 15 15 14 13
140 153 143 128 117 109 110 122 130 125 129 90 55 55 38 42 37 23 15 3 345 9 21 26 14 336 315 297 325 330 333 335 346 352 355 1 3 6 9 6 3 5 7 7
135 142 153 145 134 116 119 213 203 210 245 260 257 301 2 4 9 5 8 9 1 357 355 348 342 340 333 325 319 317 321 314 311 322 335 349 353 351 354 353 353 355 354 354
Wind_Speed_850mb
14 14 6 3 2 3 5 10 11 15 16 10 7 9 14 21 29 36 36 39 39 38 34 36 33 30 27 29 35 39 38 37 38 39 45 42 31 40 50 63 58 57 65 96
6 9 6 13 16 14 12 12 13 16 7 7 11 17 22 29 35 35 34 32 31 30 29 32 33 33 33 34 35 37 38 38 38 43 39 39 36 28 30 43 36 50 64 72
9 9 7 12 12 7 10 11 12 12 9 10 5 20 23 28 29 29 26 27 22 21 23 25 27 31 35 41 47 48 48 48 48 50 52 48 46 46 43 45 49 51 53 58
5 7 7 12 2 25 21 12 12 14 9 12 15 19 20 24 29 26 23 15 12 15 22 24 30 30 33 38 47 42 41 42 47 51 52 51 49 50 55 52 52 56 60 63
8 5 4 5 12 10 11 7 4 10 7 11 11 22 18 21 17 14 10 7 10 21 28 31 39 40 44 51 54 49 50 45 44 45 51 53 52 62 59 55 58 59 60 64
5 8 10 12 4 7 10 3 19 13 9 8 6 4 7 18 13 7 4 11 21 30 37 42 43 40 35 45 45 47 51 54 58 55 55 54 62 68 64 61 59 59 62 62
4 5 12 9 16 17 5 8 27 18 16 12 7 8 13 9 2 7 13 21 30 30 35 33 37 38 42 56 58 63 56 56 50 55 54 59 62 65 64 62 60 61 61 64
6 5 11 8 2 8 13 26 26 21 18 24 20 14 6 2 8 11 18 23 23 28 28 32 41 50 60 67 64 59 59 47 45 51 54 59 56 63 60 55 57 60 61 58
10 9 7 9 26 38 31 28 20 25 20 16 13 14 12 7 5 13 18 16 25 33 39 45 51 54 57 58 60 53 51 53 50 50 53 59 60 61 60 49 53 55 52 53
7 5 3 26 27 24 19 25 24 18 11 9 10 13 10 8 10 16 24 31 39 46 50 52 53 53 51 52 51 49 50 51 52 48 55 56 58 58 54 54 53 52 48 47
3 4 9 12 16 15 14 15 11 7 9 10 9 9 5 7 13 22 32 40 44 48 52 52 49 45 47 50 46 55 51 51 52 52 51 55 52 53 54 54 45 43 42 39
10 25 11 14 14 11 13 12 8 6 12 15 10 9 8 14 17 25 33 41 44 46 48 45 45 46 46 51 51 51 51 47 47 46 45 53 52 59 54 51 46 41 30 31
18 32 36 33 25 19 21 24 20 15 12 10 8 11 12 10 15 26 32 39 44 48 43 39 41 45 49 49 50 47 43 45 50 51 51 52 56 56 66 68 43 35 22 42
57 50 35 27 24 21 17 18 13 10 8 10 8 7 6 11 21 31 39 42 41 38 36 36 41 43 45 47 48 46 46 48 48 46 42 41 42 45 51 60 65 22 26 32
28 19 37 37 27 20 15 11 5 8 11 12 6 4 10 20 28 35 35 30 29 31 33 35 39 40 45 48 45 44 46 50 46 42 39 37 37 40 42 47 48 49 38 33
36 34 31 23 24 18 10 7 8 12 17 21 10 12 18 24 28 28 23 26 33 37 33 32 32 39 45 51 50 41 41 42 44 40 37 38 40 42 42 41 41 44 41 39
38 31 26 22 14 9 8 10 14 19 17 6 10 17 21 22 21 20 24 31 31 24 22 25 30 35 45 55 57 46 42 40 40 38 36 36 34 36 40 42 44 45 40 40
22 21 15 10 7 4 7 14 13 6 6 10 14 18 17 15 16 23 28 28 20 19 22 25 27 30 41 53 58 51 45 43 41 41 40 40 37 36 36 38 39 40 42 39
19 17 11 4 2 5 6 6 7 9 11 15 15 14 13 9 11 18 19 19 23 26 28 28 28 27 32 42 51 55 49 46 47 47 47 47 47 47 47 44 40 39 41 43
12 5 3 7 10 10 9 9 11 13 11 7 8 7 7 9 14 20 23 26 26 25 26 28 29 28 16 32 40 48 49 52 50 50 50 50 52 52 49 49 49 49 50 50
2 7 9 11 11 12 11 8 6 4 4 5 6 8 11 13 13 15 17 20 20 18 22 23 30 29 17 30 35 33 39 47 51 48 49 51 53 55 53 52 53 53 52 51
3 4 8 10 11 8 12 13 11 7 7 9 10 11 11 7 7 9 11 14 15 14 15 20 25 22 23 28 36 34 30 37 42 45 46 48 50 52 54 54 54 53 50 49
4 5 7 6 6 10 12 9 5 10 15 16 16 18 18 20 21 19 12 9 10 14 10 10 17 19 20 24 33 42 34 33 38 40 39 42 44 48 49 49 49 49 50 50
2 3 2 6 9 10 12 15 19 20 20 17 14 18 21 23 22 16 8 12 11 9 5 10 9 10 14 23 28 31 34 35 39 41 43 36 38 41 44 47 48 46 45 46
4 7 9 14 17 21 22 23 21 19 14 15 16 20 25 30 23 20 22 17 17 16 11 16 11 8 12 16 18 21 23 25 30 32 38 43 35 38 40 42 44 45 45 44
7 5 20 25 23 21 19 18 13 9 7 5 9 14 19 23 24 29 34 25 15 12 16 15 12 11 14 13 16 16 15 17 25 31 32 35 35 36 41 44 42 43 44 44
19 20 22 18 12 7 2 6 9 8 8 12 9 2 8 14 18 25 32 30 26 21 22 22 20 16 14 14 16 18 21 24 25 22 26 29 34 39 38 46 43 42 39 41
Wind_Direction_850mb
229 241 180 107 291 272 146 157 154 186 148 195 190 123 88 77 88 86 78 63 61 60 55 53 45 33 16 3 352 344 343 340 338 343 336 339 313 288 273 274 273 257 277 251
291 317 83 62 17 75 50 94 58 105 119 144 126 124 83 80 87 80 79 79 75 68 54 40 30 19 7 356 346 337 332 328 325 329 332 336 328 319 284 291 285 274 274 267
236 338 69 13 329 352 61 41 125 152 200 125 116 64 59 97 95 95 102 98 77 61 44 26 7 352 342 339 339 332 327 324 323 319 318 317 315 313 310 304 299 289 284 277
170 21 68 237 58 95 87 51 51 85 87 145 138 74 111 124 125 115 113 109 81 40 19 8 2 357 0 1 350 332 328 324 323 318 314 313 313 314 308 305 297 290 286 284
116 75 322 273 245 180 140 217 225 122 131 132 130 108 93 137 133 129 121 80 18 4 4 2 358 358 349 350 344 336 329 318 318 320 319 314 314 317 311 301 294 291 292 289
103 114 188 228 146 203 128 224 187 163 171 151 128 62 249 166 154 143 19 358 359 358 356 352 346 344 336 329 324 321 318 316 309 311 309 310 311 311 307 302 296 293 292 288
101 174 285 254 247 172 212 245 152 167 149 140 145 188 141 164 224 332 341 349 347 346 345 337 324 321 321 323 320 319 315 312 310 312 309 310 312 309 308 302 299 298 298 298
100 87 279 22 357 187 153 127 134 126 122 113 101 102 102 15 329 339 345 330 325 324 326 323 320 317 315 319 322 321 315 310 319 315 314 317 316 316 315 305 304 304 306 306
163 211 293 17 118 120 127 122 123 132 131 116 82 47 54 36 316 321 328 348 348 348 341 335 330 327 327 326 321 319 316 316 320 320 318 319 322 320 316 312 310 310 309 309
87 284 125 113 114 114 116 118 123 120 104 36 65 71 56 57 45 11 2 352 344 340 338 335 332 331 325 328 327 332 329 328 326 322 320 321 324 326 317 312 311 307 303 307
40 292 136 132 131 121 123 129 121 107 90 72 63 92 59 45 8 357 348 344 341 337 334 336 337 336 337 339 332 327 333 329 327 326 327 329 332 337 334 328 312 307 297 301
202 186 156 157 148 159 154 131 125 141 102 93 80 79 37 353 349 344 342 338 334 332 333 337 337 337 339 338 341 337 335 336 338 341 344 346 340 340 340 330 323 314 300 293
145 142 121 118 124 135 131 121 118 113 81 61 34 10 354 343 342 337 339 341 337 333 333 334 337 339 342 347 350 350 348 339 338 339 337 345 347 349 342 335 332 334 320 300
138 133 122 132 127 130 131 119 100 77 46 10 356 334 331 340 335 337 337 333 328 329 334 337 340 343 344 344 346 347 344 344 348 352 354 351 1 359 3 3 0 350 0 12
140 148 135 129 130 128 126 119 89 32 18 9 345 326 325 329 332 332 331 337 345 343 344 346 345 351 352 352 356 353 351 356 358 359 0 1 4 355 2 7 10 8 15 12
126 130 134 133 120 112 98 59 6 348 337 333 302 294 320 330 332 333 345 356 352 352 351 352 2 7 9 9 5 359 2 4 2 359 355 0 3 1 6 9 10 11 3 357
133 127 130 123 116 87 37 356 338 334 340 318 302 319 326 334 341 349 353 354 354 357 1 7 17 16 13 14 11 11 8 11 8 4 7 7 8 12 12 15 22 21 15 7
149 135 128 119 112 58 349 339 334 331 336 340 331 329 335 348 11 360 345 350 7 18 15 19 21 20 16 17 17 16 18 22 19 17 18 22 21 19 21 23 23 16 17 17
135 132 122 105 3 333 320 311 331 340 324 316 321 330 344 11 9 347 356 18 35 47 39 25 13 6 18 21 22 23 25 26 27 29 30 32 32 33 30 26 27 28 26 28
131 106 345 322 314 313 316 304 312 327 331 319 331 343 35 50 56 53 66 55 48 33 27 15 13 6 18 26 21 21 25 26 26 29 30 32 34 37 39 38 38 41 40 37
288 312 319 322 327 324 322 325 334 359 68 22 16 44 62 89 81 51 46 35 22 19 12 1 2 15 35 26 22 20 25 25 26 26 27 29 31 34 35 35 36 37 39 40
225 303 325 331 341 24 68 74 90 89 87 78 65 75 59 55 10 359 342 346 359 353 1 357 6 15 25 31 26 20 19 23 25 24 24 24 25 27 29 31 32 32 32 33
232 303 332 344 29 91 105 91 76 91 98 95 84 68 38 24 6 349 341 321 326 353 358 350 2 10 15 24 22 22 19 15 16 21 23 24 25 25 26 25 26 28 30 29
140 9 69 89 90 107 121 107 107 99 92 74 66 58 43 20 6 13 3 318 299 336 328 300 335 343 346 353 2 8 12 18 17 17 16 13 19 23 27 27 26 23 21 21
121 134 123 126 123 110 110 116 111 103 89 88 64 43 46 32 14 10 9 350 322 319 289 277 316 294 321 339 347 350 357 4 5 2 5 12 12 10 11 12 15 15 14 13
140 153 143 128 117 109 110 122 130 125 129 90 55 55 38 42 37 23 15 3 345 9 21 26 14 336 315 297 325 330 333 335 346 352 355 1 3 6 9 6 3 5 7 7
135 142 153 145 134 116 119 213 203 210 245 260 257 301 2 4 9 5 8 9 1 357 355 348 342 340 333 325 319 317 321 314 311 322 335 349 353 351 354 353 353 355 354 354